Location: Bakhuizen
(52.8696°N, 5.4575°E)
Time: 06:24:36
(UTC+00:00)

Gbstr 26 Del rocket - Pass Details

Date: 11 May 2021
Orbit: 493 x 1263 km, 51.8° (Epoch: 20 June)

Event Time Altitude Azimuth Distance (km) Brightness Sun altitude
Rises 20:21:22 0° 266° (W) 4,199 8.0 -7.7°
Reaches altitude 10° 20:24:19 10° 266° (W) 3,195 7.3 -8.0°
Maximum altitude 20:32:15 84° 181° (S) 1,139 4.3 -8.8°
Drops below altitude 10° 20:39:01 10° 93° (E) 2,753 6.0 -9.5°
Enters shadow 20:41:22 - 93° (E) 3,578 6.5 -9.8°
